Weather in Novoaleksandrovo

Russia / Vladimir Oblast     56°13′16″N   40°15′48″E
temp.,
°C
wind,
m/s
gust,
m/s
humid.,
%
clouds,
%
prec.,
mm/h
press.,
hPa
HPBL,
m
15 may, sat
sat1500:00+13e4997100 2.1 1013175
03:00+13ese3797100 2.3 1012132
06:00+16ese249598 0.3 1011108
09:00+18ese4894100 0.9 1010233
12:00+23s81374100 3.9 10091392
15:00+18s81484100 7.1 1010684
18:00+20ssw712832 0.4 1009818
21:00+15s412920 1.3 1010292
16 may, sun
sun1600:00+13s411940 0.0 1011275
03:00+12s411960 0.0 1011246
06:00+13ssw511956 0.0 1012371
09:00+17ssw69775 0.0 1013784
12:00+20ssw710592 0.0 10131837
15:00+21sw711622 0.2 10132115
18:00+19sw610711 0.3 1013745
21:00+14ssw48870 0.3 1014131
17 may, mon
mon1700:00+13sw33922 0.0 101543
03:00+12sw229299 0.0 101618
06:00+14s238897 0.0 101678
09:00+19sse237045 0.0 1017499
12:00+23ese3456100 0.0 10161129
15:00+25ese465316 0.0 10141323
18:00+23e48715 0.0 1013243
21:00+18se46855 0.0 101386
18 may, tue
tue1800:00+15se38880 0.0 1013122
03:00+14ese38900 0.0 1012117
06:00+16se413799 0.0 1012263
09:00+21se513625 0.0 1011550
12:00+26se611505 0.0 10101116
15:00+26se610465 0.0 10091238
18:00+23ese613583 0.0 1008365
21:00+19se6146884 0.0 1008355
19 may, wed
wed1900:00+17se4108282 0.0 1008226
03:00+16se368913 0.0 1008107
06:00+16sse2887100 0.0 1007249
09:00+19se597590 0.0 1006441
12:00+24s61056100 0.0 10051976
15:00+22sse81463100 0.3 10041747
18:00+16sse714898 2.5 1004943
21:00+14sse5129290 2.5 1004543